Location: Northcutt
(34.7304°N, 84.4305°W)
Time: 05:48:32
(UTC+00:00)

Vanguard 2 - Pass Details

Date: 12 October 2022
Orbit: 553 x 2933 km, 32.9° (Epoch: 04 December)

Event Time Altitude Azimuth Distance (km) Brightness Sun altitude
Rises 15:08:08 0° 234° (SW) 3,148 10.6 36.9°
Reaches altitude 10° 15:10:13 10° 227° (SW) 2,405 10.2 37.2°
Maximum altitude 15:15:40 48° 154° (SSE) 1,398 10.9 38.0°
Drops below altitude 10° 15:24:29 10° 84° (E) 3,861 11.6 39.1°
Sets 15:28:42 0° 80° (E) 5,266 12.1 39.7°
